Regional Weather Roundup
Issued by NWS

Home | Current Version | Previous Version | Graphics & Text | Print | Product List | Glossary On
Versions: 1 2 3 4 5 6 7 8 9 10 11 12 13 14 15 16 17 18 19 20 21 22 23 24 25 26 27 28 29 30 31 32 33 34 35 36 37 38 39 40 41 42 43 44 45 46 47 48 49 50
000
ASUS43 KIND 151309
RWRIN

WEATHER ROUNDUP FOR INDIANA
NATIONAL WEATHER SERVICE INDIANAPOLIS IN
900 AM EDT MON SEP 15 2014

NOTE: "FAIR" INDICATES FEW OR NO CLOUDS BELOW 12,000 FEET WITH NO
SIGNIFICANT WEATHER AND/OR OBSTRUCTIONS TO VISIBILITY.

* - STATION DOES NOT REPORT WEATHER SUCH AS PRECIPITATION OR FOG.

+ - STATION NOT QUALITY CONTROLLED BY THE NATIONAL WEATHER SERVICE.
    USE DATA WITH CAUTION...ESPECIALLY DEWPOINT AND RELATIVE
    HUMIDITY OBSERVATIONS.

INZ001>003-010>013-019-020-151400-
NORTHWEST INDIANA

CITY           SKY/WX    TMP DP  RH WIND       PRES   REMARKS
GARY /AIRPORT/ CLOUDY    54  50  87 S7        30.19R
KNOX *+        CLOUDY    50  47  88 S5        30.16F
LA PORTE +     CLOUDY    50  49  94 CALM      30.18S
MICHIGAN CITY+ CLOUDY    52  50  93 CALM      30.18R
MONTICELLO +   CLOUDY    52  51  96 CALM      30.17F
RENSSELAER +   CLOUDY    52  52 100 CALM      30.18S
VALPARAISO     CLOUDY    51  48  89 CALM      30.18S

$$

LMZ046-743>745-151400-
SOUTHERN LAKE MICHIGAN

STATION/POSITION TIME  TEMP WIND        PRES
                       AIR  DIR/SP/G
                 (UTC) (F)  (DEG/KT/KT) (MB)
MICHIGAN CITY    1300   53  140/  8/ 10   N/A

$$

INZ004-005-014>016-021>024-151400-
NORTH CENTRAL INDIANA

CITY           SKY/WX    TMP DP  RH WIND       PRES   REMARKS
ELKHART        CLOUDY    50  48  93 CALM      30.19F
GOSHEN         LGT RAIN  53  48  83 CALM      30.19R
LOGANSPORT +   CLOUDY    50  46  87 SE3       30.19F
PERU/GRISSOM   MOSUNNY   54  54  99 CALM      30.20R
ROCHESTER +    LGT RAIN  54  50  87 CALM      30.20R
SOUTH BEND     CLOUDY    52  49  89 S3        30.18F
WARSAW +       RAIN      50  50 100 CALM      30.21S

$$

INZ006>009-017-018-025>027-151400-
NORTHEAST INDIANA

CITY           SKY/WX    TMP DP  RH WIND       PRES   REMARKS
ANGOLA *+      MOSUNNY   50  46  87 CALM      30.19R
AUBURN +       MOSUNNY   50  46  87 CALM      30.20S
FORT WAYNE     PTSUNNY   52  49  89 CALM      30.20F
HUNTINGTON +   MOSUNNY   52  50  93 CALM      30.19S

$$

INZ028-029-035-036-043>045-051>053-151400-
WEST CENTRAL INDIANA

CITY           SKY/WX    TMP DP  RH WIND       PRES   REMARKS
GREENCASTLE +  SUNNY     50  48  93 CALM      30.20R
LAFAYETTE      CLOUDY    51  50  96 CALM      30.19S
TERRE HAUTE    PTSUNNY   51  49  92 CALM      30.19S

$$

INZ030>032-037>040-046>048-054>057-064-065-151400-
CENTRAL INDIANA

CITY           SKY/WX    TMP DP  RH WIND       PRES   REMARKS
ANDERSON       MOSUNNY   50  50 100 CALM      30.20
CP ATTERBURY + MOSUNNY   50  48  93 CALM      30.20F
COLUMBUS       MOSUNNY   50  50 100 SE3       30.20F
FRANKFORT +    SUNNY    N/A N/A N/A CALM      30.21R
GREENWOOD *+   MOSUNNY   55  52  88 SE6       30.19F
INDIANAPOLIS   PTSUNNY   54  49  83 SE5       30.18F
-EAGLE CREEK   SUNNY     55  51  86 W3        30.19S
KOKOMO *+      MOSUNNY   52  48  87 CALM      30.19S
MARION +       MOSUNNY   50  48  91 CALM      30.20S
MT COMFORT *+  MOSUNNY   52 N/A N/A SE6       30.18F
SHELBYVILLE    MOSUNNY   54  49  83 CALM      30.19F
ZIONSVILLE +   MOSUNNY   51  49  91 CALM      30.19R

$$

INZ033-034-041-042-049-050-058-059-151400-
EAST CENTRAL INDIANA

CITY           SKY/WX    TMP DP  RH WIND       PRES   REMARKS
MUNCIE         MOSUNNY   55  50  83 CALM      30.20S

$$

INZ060-061-067>069-081>083-085>088-151400-
SOUTHWEST INDIANA

CITY           SKY/WX    TMP DP  RH WIND       PRES   REMARKS
EVANSVILLE     MOSUNNY   56  52  86 CALM      30.21S
WASHINGTON +   MOSUNNY   54  53  95 E3        30.20S

$$

INZ062-063-066-070>080-084-089>092-151400-
SOUTH CENTRAL AND SOUTHEAST INDIANA

CITY           SKY/WX    TMP DP  RH WIND       PRES   REMARKS
BLOOMINGTON    SUNNY     52  51  97 CALM      30.20R

$$



USA.gov is the U.S. government's official web portal to all federal, state and local government web resources and services.